Time,TemperatureF,DewpointF,PressureIn,WindDirection,WindDirectionDegrees,WindSpeedMPH,WindSpeedGustMPH,Humidity,HourlyPrecipIn,Conditions,Clouds,dailyrainin,SoftwareType,DateUTC
2013-03-10 00:05:00,35.8,34.2,29.73,ESE,120,0.0,2.0,94,0.00,,,0.24,Wunderground v.1.13,2013-03-10 06:05:00,
2013-03-10 00:15:00,35.9,34.3,29.73,ESE,121,0.0,2.0,94,0.00,,,0.24,Wunderground v.1.13,2013-03-10 06:15:00,
2013-03-10 00:25:00,36.0,34.4,29.73,ESE,121,0.0,2.0,94,0.00,,,0.24,Wunderground v.1.13,2013-03-10 06:25:00,
2013-03-10 00:35:00,36.2,34.6,29.73,ESE,121,0.0,2.0,94,0.00,,,0.24,Wunderground v.1.13,2013-03-10 06:35:00,
2013-03-10 00:40:00,36.2,34.6,29.73,ESE,122,0.0,2.0,94,0.00,,,0.24,Wunderground v.1.13,2013-03-10 06:40:00,
2013-03-10 00:45:00,36.2,34.6,29.73,ESE,123,0.0,2.0,94,0.00,,,0.24,Wunderground v.1.13,2013-03-10 06:45:00,
2013-03-10 00:50:00,36.2,34.6,29.73,ESE,123,0.0,2.0,94,0.00,,,0.24,Wunderground v.1.13,2013-03-10 06:50:00,
2013-03-10 00:55:00,36.2,34.6,29.73,ESE,123,0.0,4.0,94,0.00,,,0.24,Wunderground v.1.13,2013-03-10 06:55:00,
2013-03-10 01:05:00,36.3,34.7,29.73,SE,126,0.0,6.0,94,0.00,,,0.25,Wunderground v.1.13,2013-03-10 07:05:00,
2013-03-10 01:15:00,36.6,35.3,29.73,SE,126,0.0,6.0,95,0.05,,,0.26,Wunderground v.1.13,2013-03-10 07:15:00,
2013-03-10 01:25:00,36.8,35.5,29.73,SE,126,0.0,6.0,95,0.05,,,0.26,Wunderground v.1.13,2013-03-10 07:25:00,
2013-03-10 01:35:00,37.0,35.7,29.73,SE,136,0.0,6.0,95,0.11,,,0.28,Wunderground v.1.13,2013-03-10 07:35:00,
2013-03-10 01:45:00,37.3,36.0,29.73,SSE,155,2.0,6.0,95,0.06,,,0.29,Wunderground v.1.13,2013-03-10 07:45:00,
2013-03-10 01:50:00,37.8,36.5,29.72,SSE,157,3.0,6.0,95,0.10,,,0.30,Wunderground v.1.13,2013-03-10 07:50:00,
2013-03-10 03:00:00,38.3,37.0,29.72,SSE,155,5.0,6.0,95,0.07,,,0.31,Wunderground v.1.13,2013-03-10 08:00:00,
2013-03-10 03:05:00,38.5,37.2,29.71,SSE,157,5.0,12.0,95,0.06,,,0.32,Wunderground v.1.13,2013-03-10 08:05:00,
2013-03-10 03:15:00,38.5,36.9,29.71,SSE,165,4.0,12.0,94,0.06,,,0.32,Wunderground v.1.13,2013-03-10 08:15:00,
2013-03-10 03:25:00,38.5,36.9,29.70,SSE,167,4.0,12.0,94,0.00,,,0.32,Wunderground v.1.13,2013-03-10 08:25:00,
2013-03-10 03:30:00,38.5,36.9,29.70,SSE,160,3.0,3.0,94,0.00,,,0.32,Wunderground v.1.13,2013-03-10 08:30:00,
2013-03-10 03:40:00,38.5,36.9,29.70,SSE,149,2.0,2.0,94,0.00,,,0.32,Wunderground v.1.13,2013-03-10 08:40:00,
2013-03-10 03:45:00,38.5,36.9,29.70,SSE,150,1.0,1.0,94,0.00,,,0.32,Wunderground v.1.13,2013-03-10 08:45:00,
2013-03-10 03:55:00,38.3,36.7,29.70,SSE,164,1.0,12.0,94,0.14,,,0.34,Wunderground v.1.13,2013-03-10 08:55:00,
2013-03-10 04:00:00,38.3,36.7,29.70,SSE,163,1.0,1.0,94,0.14,,,0.35,Wunderground v.1.13,2013-03-10 09:00:00,
2013-03-10 04:05:00,38.3,36.7,29.70,SSE,151,1.0,1.0,94,0.13,,,0.37,Wunderground v.1.13,2013-03-10 09:05:00,
2013-03-10 04:15:00,38.3,36.7,29.70,SSE,163,1.0,7.0,94,0.10,,,0.38,Wunderground v.1.13,2013-03-10 09:15:00,
2013-03-10 04:25:00,38.3,36.7,29.69,SSE,157,0.0,7.0,94,0.07,,,0.39,Wunderground v.1.13,2013-03-10 09:25:00,
2013-03-10 04:35:00,38.2,36.6,29.67,SSE,157,0.0,7.0,94,0.05,,,0.40,Wunderground v.1.13,2013-03-10 09:35:00,
2013-03-10 04:45:00,38.0,36.4,29.67,SSE,158,0.0,7.0,94,0.04,,,0.40,Wunderground v.1.13,2013-03-10 09:45:00,
2013-03-10 04:50:00,38.0,36.4,29.67,SSE,158,0.0,7.0,94,0.00,,,0.41,Wunderground v.1.13,2013-03-10 09:50:00,
2013-03-10 04:55:00,38.0,36.4,29.67,SSE,158,0.0,8.0,94,0.00,,,0.41,Wunderground v.1.13,2013-03-10 09:55:00,
2013-03-10 05:05:00,38.0,36.7,29.68,SSE,158,0.0,5.0,95,0.00,,,0.42,Wunderground v.1.13,2013-03-10 10:05:00,
2013-03-10 05:15:00,38.2,36.9,29.68,SE,146,2.0,2.0,95,0.00,,,0.42,Wunderground v.1.13,2013-03-10 10:15:00,
2013-03-10 05:25:00,38.3,37.0,29.69,SSE,148,0.0,5.0,95,0.05,,,0.43,Wunderground v.1.13,2013-03-10 10:25:00,
2013-03-10 05:35:00,38.2,36.9,29.69,SSE,148,0.0,5.0,95,0.04,,,0.44,Wunderground v.1.13,2013-03-10 10:35:00,
2013-03-10 05:40:00,38.2,36.9,29.69,SSE,148,0.0,5.0,95,0.04,,,0.44,Wunderground v.1.13,2013-03-10 10:40:00,
2013-03-10 05:45:00,38.0,36.7,29.69,SSE,148,0.0,5.0,95,0.05,,,0.45,Wunderground v.1.13,2013-03-10 10:45:00,
2013-03-10 05:50:00,37.9,36.6,29.68,SSE,148,0.0,5.0,95,0.05,,,0.45,Wunderground v.1.13,2013-03-10 10:50:00,
2013-03-10 05:55:00,37.9,36.6,29.68,SSE,147,0.0,5.0,95,0.05,,,0.45,Wunderground v.1.13,2013-03-10 10:55:00,
2013-03-10 06:05:00,38.0,36.7,29.69,SSE,148,0.0,5.0,95,0.00,,,0.00,Wunderground v.1.13,2013-03-10 11:05:00,
2013-03-10 06:15:00,38.3,37.3,29.69,SSE,152,2.0,5.0,96,0.00,,,0.00,Wunderground v.1.13,2013-03-10 11:15:00,
2013-03-10 06:25:00,38.5,37.5,29.70,SSE,151,2.0,5.0,96,0.04,,,0.01,Wunderground v.1.13,2013-03-10 11:25:00,
2013-03-10 06:30:00,38.6,37.6,29.70,SE,128,1.0,5.0,96,0.05,,,0.02,Wunderground v.1.13,2013-03-10 11:30:00,
2013-03-10 06:35:00,38.6,37.6,29.69,SE,128,1.0,1.0,96,0.05,,,0.02,Wunderground v.1.13,2013-03-10 11:35:00,
2013-03-10 06:45:00,38.6,37.6,29.69,SE,144,1.0,5.0,96,0.06,,,0.03,Wunderground v.1.13,2013-03-10 11:45:00,
2013-03-10 06:50:00,38.8,37.8,29.69,SSE,153,1.0,1.0,96,0.08,,,0.04,Wunderground v.1.13,2013-03-10 11:50:00,
2013-03-10 06:55:00,39.1,38.1,29.69,SSE,150,1.0,1.0,96,0.07,,,0.05,Wunderground v.1.13,2013-03-10 11:55:00,
2013-03-10 07:00:00,39.1,38.1,29.69,SE,146,1.0,5.0,96,0.09,,,0.06,Wunderground v.1.13,2013-03-10 12:00:00,
2013-03-10 07:05:00,38.9,37.9,29.68,SE,146,1.0,1.0,96,0.09,,,0.06,Wunderground v.1.13,2013-03-10 12:05:00,
2013-03-10 07:15:00,38.8,37.8,29.68,SE,146,0.0,9.0,96,0.06,,,0.07,Wunderground v.1.13,2013-03-10 12:15:00,
2013-03-10 07:25:00,38.8,37.8,29.67,SE,136,0.0,9.0,96,0.04,,,0.07,Wunderground v.1.13,2013-03-10 12:25:00,
2013-03-10 07:35:00,38.8,37.8,29.66,SE,128,0.0,9.0,96,0.00,,,0.08,Wunderground v.1.13,2013-03-10 12:35:00,
2013-03-10 07:45:00,38.9,37.9,29.66,ESE,107,0.0,9.0,96,0.00,,,0.08,Wunderground v.1.13,2013-03-10 12:45:00,
2013-03-10 07:55:00,39.3,38.3,29.66,ESE,107,0.0,9.0,96,0.00,,,0.09,Wunderground v.1.13,2013-03-10 12:55:00,
2013-03-10 08:05:00,39.5,38.5,29.66,ESE,107,0.0,7.0,96,0.00,,,0.09,Wunderground v.1.13,2013-03-10 13:05:00,
2013-03-10 08:15:00,40.1,39.3,29.66,SE,133,2.0,8.0,97,0.00,,,0.09,Wunderground v.1.13,2013-03-10 13:15:00,
2013-03-10 08:25:00,40.1,39.1,29.68,SSW,192,6.0,6.0,96,0.00,,,0.09,Wunderground v.1.13,2013-03-10 13:25:00,
2013-03-10 08:35:00,39.8,38.8,29.72,SW,233,3.0,7.0,96,0.00,,,0.09,Wunderground v.1.13,2013-03-10 13:35:00,
2013-03-10 08:45:00,39.1,38.1,29.72,SSW,211,3.0,3.0,96,0.00,,,0.09,Wunderground v.1.13,2013-03-10 13:45:00,
2013-03-10 08:55:00,38.8,37.8,29.74,SSW,212,2.0,2.0,96,0.00,,,0.10,Wunderground v.1.13,2013-03-10 13:55:00,
2013-03-10 09:05:00,38.5,37.5,29.73,SSW,212,0.0,8.0,96,0.00,,,0.10,Wunderground v.1.13,2013-03-10 14:05:00,
2013-03-10 09:15:00,38.6,37.6,29.73,SSW,212,0.0,8.0,96,0.00,,,0.10,Wunderground v.1.13,2013-03-10 14:15:00,
2013-03-10 09:20:00,38.6,37.8,29.73,SSW,212,0.0,8.0,97,0.00,,,0.10,Wunderground v.1.13,2013-03-10 14:20:00,
2013-03-10 09:25:00,38.5,37.7,29.73,SSW,212,0.0,8.0,97,0.00,,,0.10,Wunderground v.1.13,2013-03-10 14:25:00,
2013-03-10 09:30:00,38.5,37.5,29.73,SSW,212,0.0,8.0,96,0.00,,,0.10,Wunderground v.1.13,2013-03-10 14:30:00,
2013-03-10 09:40:00,38.5,37.7,29.73,SSW,212,0.0,8.0,97,0.00,,,0.10,Wunderground v.1.13,2013-03-10 14:40:00,
2013-03-10 09:45:00,38.5,37.7,29.73,SSW,212,0.0,8.0,97,0.00,,,0.11,Wunderground v.1.13,2013-03-10 14:45:00,
2013-03-10 09:55:00,38.5,37.7,29.73,SSW,212,0.0,8.0,97,0.04,,,0.11,Wunderground v.1.13,2013-03-10 14:55:00,
2013-03-10 10:00:00,38.3,37.5,29.73,SSW,212,0.0,8.0,97,0.04,,,0.12,Wunderground v.1.13,2013-03-10 15:00:00,
2013-03-10 10:05:00,38.2,37.4,29.72,SSW,212,0.0,0.0,97,0.04,,,0.12,Wunderground v.1.13,2013-03-10 15:05:00,
2013-03-10 13:30:00,41.1,40.3,29.73,East,86,0.0,5.0,97,0.00,,,0.13,Wunderground v.1.13,2013-03-10 18:30:00,
2013-03-10 13:40:00,40.9,40.1,29.73,East,86,0.0,5.0,97,0.00,,,0.13,Wunderground v.1.13,2013-03-10 18:40:00,
2013-03-10 13:50:00,40.5,39.7,29.72,East,86,0.0,5.0,97,0.00,,,0.13,Wunderground v.1.13,2013-03-10 18:50:00,
2013-03-10 14:00:00,40.1,39.3,29.72,East,86,0.0,5.0,97,0.00,,,0.14,Wunderground v.1.13,2013-03-10 19:00:00,
2013-03-10 14:05:00,39.9,39.1,29.71,East,83,0.0,5.0,97,0.00,,,0.14,Wunderground v.1.13,2013-03-10 19:05:00,
2013-03-10 14:15:00,39.5,38.7,29.71,North,5,2.0,5.0,97,0.00,,,0.14,Wunderground v.1.13,2013-03-10 19:15:00,
2013-03-10 14:20:00,39.5,38.7,29.71,North,5,1.0,1.0,97,0.00,,,0.14,Wunderground v.1.13,2013-03-10 19:20:00,
2013-03-10 14:25:00,39.5,38.7,29.71,North,5,1.0,1.0,97,0.00,,,0.14,Wunderground v.1.13,2013-03-10 19:25:00,
2013-03-10 14:30:00,39.2,38.4,29.71,North,5,0.0,5.0,97,0.00,,,0.15,Wunderground v.1.13,2013-03-10 19:30:00,
2013-03-10 14:40:00,38.9,38.1,29.71,North,5,0.0,5.0,97,0.07,,,0.16,Wunderground v.1.13,2013-03-10 19:40:00,
2013-03-10 14:45:00,39.1,38.3,29.71,North,5,0.0,5.0,97,0.09,,,0.17,Wunderground v.1.13,2013-03-10 19:45:00,
2013-03-10 14:50:00,39.2,38.4,29.69,NNE,15,2.0,8.0,97,0.08,,,0.18,Wunderground v.1.13,2013-03-10 19:50:00,
2013-03-10 15:00:00,38.9,38.1,29.69,NNE,12,5.0,5.0,97,0.05,,,0.18,Wunderground v.1.13,2013-03-10 20:00:00,
2013-03-10 15:05:00,38.8,38.0,29.67,NNE,16,5.0,12.0,97,0.04,,,0.19,Wunderground v.1.13,2013-03-10 20:05:00,
2013-03-10 15:15:00,38.6,37.8,29.67,NE,44,5.0,5.0,97,0.04,,,0.19,Wunderground v.1.13,2013-03-10 20:15:00,
2013-03-10 15:20:00,38.3,37.5,29.67,NNE,26,4.0,4.0,97,0.05,,,0.20,Wunderground v.1.13,2013-03-10 20:20:00,
2013-03-10 15:25:00,38.2,37.4,29.67,NNE,22,4.0,4.0,97,0.05,,,0.20,Wunderground v.1.13,2013-03-10 20:25:00,
2013-03-10 15:30:00,38.2,37.4,29.67,NNE,23,4.0,4.0,97,0.04,,,0.20,Wunderground v.1.13,2013-03-10 20:30:00,
2013-03-10 15:40:00,38.0,37.2,29.66,NE,39,3.0,12.0,97,0.00,,,0.20,Wunderground v.1.13,2013-03-10 20:40:00,
2013-03-10 15:45:00,37.9,37.1,29.66,NNE,32,3.0,12.0,97,0.00,,,0.21,Wunderground v.1.13,2013-03-10 20:45:00,
2013-03-10 15:55:00,37.8,37.0,29.67,NE,35,3.0,12.0,97,0.06,,,0.22,Wunderground v.1.13,2013-03-10 20:55:00,
2013-03-10 16:05:00,37.8,37.0,29.67,NE,36,2.0,7.0,97,0.06,,,0.23,Wunderground v.1.13,2013-03-10 21:05:00,
2013-03-10 16:15:00,37.8,37.0,29.67,NE,36,0.0,7.0,97,0.07,,,0.24,Wunderground v.1.13,2013-03-10 21:15:00,
2013-03-10 16:25:00,38.0,37.2,29.67,NE,36,0.0,7.0,97,0.04,,,0.24,Wunderground v.1.13,2013-03-10 21:25:00,
2013-03-10 16:35:00,38.3,37.5,29.67,NE,36,1.0,7.0,97,0.00,,,0.25,Wunderground v.1.13,2013-03-10 21:35:00,
2013-03-10 16:40:00,38.5,37.7,29.67,NE,36,1.0,1.0,97,0.07,,,0.26,Wunderground v.1.13,2013-03-10 21:40:00,
2013-03-10 16:45:00,38.5,37.7,29.67,NE,36,1.0,1.0,97,0.09,,,0.27,Wunderground v.1.13,2013-03-10 21:45:00,
2013-03-10 16:50:00,38.6,37.8,29.67,NE,46,2.0,7.0,97,0.11,,,0.28,Wunderground v.1.13,2013-03-10 21:50:00,
2013-03-10 17:00:00,38.8,38.0,29.67,ENE,59,4.0,7.0,97,0.13,,,0.30,Wunderground v.1.13,2013-03-10 22:00:00,
2013-03-10 17:05:00,38.8,38.0,29.66,NE,54,5.0,11.0,97,0.09,,,0.30,Wunderground v.1.13,2013-03-10 22:05:00,
2013-03-10 17:15:00,38.2,37.4,29.66,North,10,6.0,6.0,97,0.07,,,0.32,Wunderground v.1.13,2013-03-10 22:15:00,
2013-03-10 17:25:00,37.6,36.8,29.64,NE,40,4.0,4.0,97,0.05,,,0.32,Wunderground v.1.13,2013-03-10 22:25:00,
2013-03-10 17:30:00,37.2,36.4,29.64,East,85,4.0,4.0,97,0.05,,,0.33,Wunderground v.1.13,2013-03-10 22:30:00,
2013-03-10 17:40:00,36.9,36.1,29.66,NE,55,5.0,11.0,97,0.12,,,0.35,Wunderground v.1.13,2013-03-10 22:40:00,
2013-03-10 17:45:00,36.6,35.8,29.66,ENE,67,4.0,11.0,97,0.11,,,0.36,Wunderground v.1.13,2013-03-10 22:45:00,
2013-03-10 17:50:00,36.5,35.7,29.66,NNE,33,5.0,11.0,97,0.08,,,0.36,Wunderground v.1.13,2013-03-10 22:50:00,
2013-03-10 17:55:00,36.5,35.7,29.66,NE,56,5.0,11.0,97,0.06,,,0.37,Wunderground v.1.13,2013-03-10 22:55:00,
2013-03-10 18:00:00,36.3,35.5,29.66,ENE,58,6.0,6.0,97,0.06,,,0.37,Wunderground v.1.13,2013-03-10 23:00:00,
2013-03-10 18:05:00,36.2,35.4,29.65,NE,40,5.0,5.0,97,0.05,,,0.37,Wunderground v.1.13,2013-03-10 23:05:00,
2013-03-10 18:15:00,35.9,35.1,29.65,NE,53,6.0,6.0,97,0.00,,,0.38,Wunderground v.1.13,2013-03-10 23:15:00,
2013-03-10 18:20:00,35.8,35.0,29.61,ENE,61,6.0,6.0,97,0.00,,,0.38,Wunderground v.1.13,2013-03-10 23:20:00,
2013-03-10 18:30:00,35.6,34.6,29.61,ENE,57,7.0,7.0,96,0.00,,,0.38,Wunderground v.1.13,2013-03-10 23:30:00,
2013-03-10 18:35:00,35.5,34.5,29.62,NE,45,7.0,7.0,96,0.00,,,0.38,Wunderground v.1.13,2013-03-10 23:35:00,
2013-03-10 18:40:00,35.5,34.5,29.62,East,80,7.0,13.0,96,0.00,,,0.38,Wunderground v.1.13,2013-03-10 23:40:00,
2013-03-10 18:45:00,35.5,34.5,29.62,NE,34,7.0,13.0,96,0.00,,,0.38,Wunderground v.1.13,2013-03-10 23:45:00,
2013-03-10 18:55:00,35.5,34.5,29.63,NE,47,6.0,13.0,96,0.00,,,0.38,Wunderground v.1.13,2013-03-10 23:55:00,
2013-03-10 19:00:00,35.5,34.5,29.63,NE,55,5.0,13.0,96,0.00,,,0.38,Wunderground v.1.13,2013-03-11 00:00:00,
2013-03-10 19:05:00,35.5,34.5,29.62,NE,49,6.0,16.0,96,0.00,,,0.38,Wunderground v.1.13,2013-03-11 00:05:00,
2013-03-10 19:15:00,35.5,34.5,29.62,ENE,66,5.0,16.0,96,0.00,,,0.38,Wunderground v.1.13,2013-03-11 00:15:00,
2013-03-10 19:25:00,35.5,34.5,29.61,NE,55,6.0,6.0,96,0.00,,,0.39,Wunderground v.1.13,2013-03-11 00:25:00,
2013-03-10 19:30:00,35.3,34.3,29.61,NE,46,5.0,16.0,96,0.00,,,0.39,Wunderground v.1.13,2013-03-11 00:30:00,
2013-03-10 19:40:00,35.5,34.5,29.61,North,9,5.0,16.0,96,0.04,,,0.40,Wunderground v.1.13,2013-03-11 00:40:00,
2013-03-10 19:45:00,35.5,34.5,29.61,ENE,78,4.0,4.0,96,0.04,,,0.40,Wunderground v.1.13,2013-03-11 00:45:00,
2013-03-10 19:55:00,35.6,34.6,29.61,ENE,63,4.0,16.0,96,0.00,,,0.41,Wunderground v.1.13,2013-03-11 00:55:00,
2013-03-10 20:00:00,35.6,34.6,29.61,NNE,22,7.0,16.0,96,0.00,,,0.41,Wunderground v.1.13,2013-03-11 01:00:00,
2013-03-10 20:05:00,35.6,34.6,29.59,ENE,75,8.0,18.0,96,0.05,,,0.42,Wunderground v.1.13,2013-03-11 01:05:00,
2013-03-10 20:15:00,35.6,34.6,29.59,NNE,31,8.0,14.0,96,0.24,,,0.46,Wunderground v.1.13,2013-03-11 01:15:00,
2013-03-10 20:20:00,35.5,33.9,29.58,NE,56,7.0,7.0,94,0.14,,,0.47,Wunderground v.1.13,2013-03-11 01:20:00,
2013-03-10 20:30:00,35.5,34.5,29.58,NE,42,6.0,6.0,96,0.11,,,0.49,Wunderground v.1.13,2013-03-11 01:30:00,
2013-03-10 20:40:00,35.6,34.6,29.57,ENE,69,6.0,6.0,96,0.09,,,0.51,Wunderground v.1.13,2013-03-11 01:40:00,
2013-03-10 20:45:00,35.8,34.8,29.57,NE,44,7.0,14.0,96,0.09,,,0.51,Wunderground v.1.13,2013-03-11 01:45:00,
2013-03-10 20:50:00,35.8,34.8,29.57,ENE,69,8.0,8.0,96,0.07,,,0.52,Wunderground v.1.13,2013-03-11 01:50:00,
2013-03-10 21:00:00,35.8,34.8,29.57,ENE,74,5.0,5.0,96,0.09,,,0.53,Wunderground v.1.13,2013-03-11 02:00:00,
2013-03-10 21:05:00,35.8,34.8,29.58,NE,34,4.0,4.0,96,0.09,,,0.54,Wunderground v.1.13,2013-03-11 02:05:00,
2013-03-10 21:15:00,35.8,34.8,29.58,ENE,60,3.0,14.0,96,0.04,,,0.55,Wunderground v.1.13,2013-03-11 02:15:00,
2013-03-10 21:25:00,35.8,34.8,29.57,NE,37,3.0,3.0,96,0.04,,,0.55,Wunderground v.1.13,2013-03-11 02:25:00,
2013-03-10 21:35:00,35.8,34.8,29.58,NE,40,1.0,14.0,96,0.00,,,0.55,Wunderground v.1.13,2013-03-11 02:35:00,
2013-03-10 21:40:00,35.6,34.6,29.58,NE,46,3.0,14.0,96,0.00,,,0.55,Wunderground v.1.13,2013-03-11 02:40:00,
2013-03-10 21:45:00,35.6,34.6,29.58,NE,38,5.0,14.0,96,0.00,,,0.56,Wunderground v.1.13,2013-03-11 02:45:00,
2013-03-10 21:50:00,35.6,34.6,29.57,NE,36,4.0,4.0,96,0.00,,,0.56,Wunderground v.1.13,2013-03-11 02:50:00,
2013-03-10 22:00:00,35.5,34.5,29.57,NE,44,3.0,3.0,96,0.00,,,0.56,Wunderground v.1.13,2013-03-11 03:00:00,
2013-03-10 22:05:00,35.5,34.5,29.58,NE,49,3.0,3.0,96,0.00,,,0.57,Wunderground v.1.13,2013-03-11 03:05:00,
2013-03-10 22:15:00,35.5,34.5,29.58,ENE,59,3.0,12.0,96,0.00,,,0.57,Wunderground v.1.13,2013-03-11 03:15:00,
2013-03-10 22:25:00,35.6,34.6,29.57,NNE,22,3.0,3.0,96,0.00,,,0.57,Wunderground v.1.13,2013-03-11 03:25:00,
2013-03-10 22:35:00,35.6,34.6,29.57,ENE,59,4.0,12.0,96,0.00,,,0.57,Wunderground v.1.13,2013-03-11 03:35:00,
2013-03-10 22:45:00,35.5,34.5,29.57,SSW,209,5.0,5.0,96,0.00,,,0.58,Wunderground v.1.13,2013-03-11 03:45:00,
2013-03-10 22:50:00,35.5,34.5,29.57,NE,53,3.0,12.0,96,0.00,,,0.58,Wunderground v.1.13,2013-03-11 03:50:00,
2013-03-10 23:00:00,35.5,34.5,29.57,NNE,32,3.0,12.0,96,0.00,,,0.58,Wunderground v.1.13,2013-03-11 04:00:00,
2013-03-10 23:05:00,35.5,34.5,29.56,ENE,59,4.0,4.0,96,0.00,,,0.58,Wunderground v.1.13,2013-03-11 04:05:00,
2013-03-10 23:15:00,35.3,34.3,29.56,NNW,332,1.0,11.0,96,0.00,,,0.58,Wunderground v.1.13,2013-03-11 04:15:00,
2013-03-10 23:20:00,35.3,34.3,29.56,NNW,332,0.0,11.0,96,0.00,,,0.58,Wunderground v.1.13,2013-03-11 04:20:00,
2013-03-10 23:30:00,35.3,34.3,29.56,NNE,19,1.0,1.0,96,0.00,,,0.58,Wunderground v.1.13,2013-03-11 04:30:00,
2013-03-10 23:35:00,35.3,34.3,29.56,NNE,19,1.0,1.0,96,0.00,,,0.59,Wunderground v.1.13,2013-03-11 04:35:00,
2013-03-10 23:45:00,35.3,34.3,29.56,NNE,19,1.0,1.0,96,0.00,,,0.59,Wunderground v.1.13,2013-03-11 04:45:00,
2013-03-10 23:55:00,35.2,34.2,29.56,NNE,19,0.0,11.0,96,0.00,,,0.59,Wunderground v.1.13,2013-03-11 04:55:00,